Roseburg, OR

3:23 AM PDT on July 23, 2017 (GMT -0700)
Roseburg Regional

Weather History for KRBG - October, 2012

Change the Weather History Date:

Tuesday, October 23, 2012

  Actual Average Record
Temperature  
Mean Temperature 47 °F 53 °F  
Max Temperature 52 °F 63 °F 79 °F (2007)
Min Temperature 42 °F 44 °F 31 °F (1953)
Degree Days  
Heating Degree Days 18 12  
Month to date heating degree days 176 193  
Since 1 July heating degree days 202 282  
Cooling Degree Days 0 0  
Month to date cooling degree days 3 2  
Year to date cooling degree days 496 478  
Moisture  
Dew Point 40 °F    
Average Humidity 73    
Maximum Humidity 92    
Minimum Humidity 54    
Precipitation  
Precipitation 0.16 in 0.10 in 2.02 in (1982)
Month to date precipitation 1.71 1.61  
Year to date precipitation 25.05 22.22  
Sea Level Pressure  
Sea Level Pressure 29.89 in    
Wind  
Wind Speed 3 mph (South)    
Max Wind Speed 14 mph    
Max Gust Speed 20 mph    
Visibility 9 miles    
Events Rain    
T = Trace of Precipitation, MM = Missing Value Source: NWS Daily Summary

Daily Weather History Graph

Daily Weather History Graph

Search for Another Location

Airport or City:

Trip Planner

Search our weather history database for the weather conditions in past years. The results will help you decide how hot, cold, wet, or windy it might be!

Date:

Astronomy

Oct. 23, 2012 Rise Set
Actual Time 7:37 AM PDT 6:16 PM PDT
Civil Twilight 7:08 AM PDT 6:46 PM PDT
Nautical Twilight 6:35 AM PDT 7:19 PM PDT
Astronomical Twilight 6:02 AM PDT 7:52 PM PDT
Moon 3:12 PM PDT 1:26 AM PDT
Length of Visible Light 11h 37m
Length of Day
10h 39m
Waxing Gibbous, 67% of the Moon is Illuminated
Oct 23
Waxing Gibbous
Oct 29
Full
Nov 6
Last Quarter
Nov 13
New
Nov 20
First Quarter

Hourly Weather History & Observations

Time (PDT) Temp. Windchill Dew Point Humidity Pressure Visibility Wind Dir Wind Speed Gust Speed Precip Events Conditions
12:53 AM 42.1 °F 40.2 °F 39.9 °F 92% 29.78 in 10.0 mi South 3.5 mph - N/A   Overcast
1:53 AM 42.1 °F 40.2 °F 39.9 °F 92% 29.81 in 10.0 mi SE 3.5 mph - 0.00 in   Overcast
2:53 AM 42.1 °F - 39.9 °F 92% 29.83 in 10.0 mi Calm Calm - N/A   Overcast
3:53 AM 42.1 °F - 39.9 °F 92% 29.84 in 10.0 mi Calm Calm - 0.01 in   Overcast
4:53 AM 42.1 °F - 39.9 °F 92% 29.86 in 10.0 mi Calm Calm - 0.00 in Rain Light Rain
5:53 AM 42.1 °F 40.2 °F 39.9 °F 92% 29.88 in 10.0 mi South 3.5 mph - 0.03 in   Overcast
6:53 AM 42.1 °F 40.2 °F 39.0 °F 89% 29.89 in 10.0 mi SSW 3.5 mph - 0.01 in   Overcast
7:49 AM 42.8 °F - 39.2 °F 87% 29.89 in 4.0 mi Calm Calm - 0.03 in Rain Rain
7:53 AM 42.1 °F - 39.9 °F 92% 29.91 in 4.0 mi Calm Calm - 0.03 in Rain Rain
8:04 AM 42.8 °F - 39.2 °F 87% 29.90 in 7.0 mi Calm Calm - 0.01 in Rain Light Rain
8:53 AM 42.1 °F - 39.9 °F 92% 29.93 in 10.0 mi Calm Calm - 0.01 in   Mostly Cloudy
10:53 AM 46.9 °F - 41.0 °F 80% 29.94 in 10.0 mi Variable 6.9 mph - N/A   Clear
11:53 AM 48.9 °F - 39.0 °F 69% 29.93 in 10.0 mi South 10.4 mph 17.3 mph N/A   Clear
12:53 PM 51.1 °F - 37.9 °F 61% 29.93 in 10.0 mi South 10.4 mph - N/A   Clear
1:53 PM 51.1 °F - 37.0 °F 59% 29.92 in 10.0 mi South 11.5 mph 18.4 mph N/A   Mostly Cloudy
2:53 PM 51.1 °F - 37.0 °F 59% 29.91 in 10.0 mi South 6.9 mph - N/A   Mostly Cloudy
3:53 PM 51.1 °F - 36.0 °F 56% 29.90 in 10.0 mi Calm Calm - 0.00 in   Overcast
4:53 PM 50.0 °F - 37.9 °F 63% 29.90 in 8.0 mi SSE 8.1 mph - 0.00 in Rain Light Rain
5:53 PM 48.0 °F - 39.9 °F 74% 29.89 in 10.0 mi South 4.6 mph - 0.01 in Rain Light Rain
6:53 PM 46.9 °F - 42.1 °F 83% 29.89 in 10.0 mi Calm Calm - 0.01 in Rain Light Rain
7:53 PM 46.0 °F - 43.0 °F 89% 29.89 in 10.0 mi Calm Calm - 0.01 in Rain Light Rain
8:53 PM 46.0 °F - 43.0 °F 89% 29.88 in 10.0 mi Calm Calm - 0.01 in Rain Light Rain
9:53 PM 45.0 °F - 43.0 °F 93% 29.88 in 10.0 mi Calm Calm - 0.00 in   Overcast
10:53 PM 45.0 °F 42.6 °F 42.1 °F 90% 29.90 in 10.0 mi SSE 4.6 mph - 0.02 in   Overcast
11:53 PM 46.0 °F - 39.9 °F 79% 29.91 in 10.0 mi Calm Calm - 0.00 in Rain Light Rain